Location: La Vergne
(36.0160°N, 86.5820°W)
Time: 03:50:11
(UTC-06:00)

Daily predictions for brighter satellites

Satellite Brightness Start Highest point End
(mag) Time Altitude Azimuth Time Altitude Azimuth Time Altitude Azimuth
CZ-3 R/B 4.4 02:39:27 10° W 03:30:21 48° SW 03:41:53 10° SSE
Cosmos 2237 Rocket 4.4 03:56:09 16° SSE 03:56:09 16° SSE 03:57:14 10° SSE
SL-16 R/B 3.4 03:57:16 37° ENE 03:57:16 37° ENE 04:02:15 10° SE
Cosmos 2297 Rocket 4.5 04:05:23 13° NNE 04:05:23 13° NNE 04:06:02 10° NNE
USA 229 DEB 3.9 04:13:19 65° N 04:14:14 73° ENE 04:21:29 10° SE
USA 229 3.9 04:13:22 64° N 04:14:20 72° ENE 04:21:34 10° SE
Centaur AC-42 4.3 04:18:21 14° S 04:18:27 14° S 04:21:24 10° SE
Tsikada Rocket 4.0 04:19:15 73° NNE 04:19:49 80° E 04:26:06 10° S
BREEZE-M DEB (TANK) 4.0 04:49:41 38° S 04:49:41 38° S 04:51:41 10° SSE
ATLAS 3B CENTAUR R/B 4.5 04:47:06 10° SSW 04:51:50 25° SE 05:01:38 10° E
Tiangong 2 3.0 04:53:42 29° ESE 04:53:42 29° ESE 04:55:54 10° E
ERBS 3.4 04:59:49 39° NE 04:59:51 39° NE 05:03:04 10° ESE
Cosmos 2151 3.2 04:59:21 21° N 05:02:05 67° E 05:06:18 10° SSE
IUS-9 SRM-1 4.3 05:02:38 22° SW 05:03:57 24° SSW 05:06:34 10° SE
DELTA 2 R/B (1) 3.5 05:04:53 42° WSW 05:06:50 82° SSE 05:12:24 10° ENE
NOSS 3-1 (C) 4.3 05:01:36 16° NNW 05:08:00 72° ENE 05:16:23 10° SE
COSMO-SKYMED 1 2.4 05:08:57 10° S 05:13:17 80° WSW 05:16:07 21° NNW
Cosmos 1538 Rocket 3.9 05:13:23 20° NNW 05:17:14 77° WSW 05:22:33 10° S
CZ-2C R/B 4.4 05:15:49 10° NE 05:19:44 28° E 05:23:38 10° SSE
IDEFIX/ARIANE 42P 4.4 05:16:24 10° NNE 05:21:07 33° E 05:25:48 10° SSE
CSL-04 Rocket 3.9 05:15:51 10° NNE 05:21:08 68° ESE 05:26:21 10° S
Cosmos 304 Rocket 4.2 05:22:03 37° W 05:22:45 39° WSW 05:27:10 10° S
Cosmos 2233 Rocket 4.4 05:18:07 10° SW 05:23:54 39° WNW 05:29:46 10° N
CZ-4 R/B 3.4 05:20:42 10° NE 05:24:22 31° E 05:28:03 10° SSE
Ariane Rocket 3.0 05:19:47 10° NNE 05:24:55 90° ESE 05:30:01 10° SSW
Genesis I 3.4 05:24:37 24° NNW 05:26:52 68° ENE 05:30:44 10° SE
Cosmos 2227 4.2 05:23:13 10° SW 05:28:41 56° WNW 05:34:13 10° NNE
Cosmos 1500 Rocket 4.1 05:28:40 33° WNW 05:29:13 35° W 05:33:14 10° SSW
GPS 2-05 Rocket1 2.5 05:30:13 50° W 05:30:57 86° S 05:34:15 10° E
Cosmos 1328 4.3 05:31:01 35° W 05:31:17 35° W 05:34:56 10° SSW
CZ-3 Stage 3 3.1 05:28:58 23° WSW 05:31:37 48° S 05:46:48 10° ESE
Cosmos 1680 Rocket 4.5 05:27:37 10° N 05:32:46 48° ENE 05:37:53 10° SE
SL-16 R/B 3.1 05:39:13 23° WNW 05:40:55 26° WSW 05:45:33 10° SSW
OAO 2 Rocket 3.6 05:38:34 23° W 05:41:24 54° SSW 05:46:12 10° ESE
ISS -2.4 05:41:57 28° WSW 05:42:41 32° SW 05:45:37 10° SSE
Sich 1 3.9 05:38:27 10° N 05:42:42 51° E 05:46:53 10° SSE
Cosmos 2034 Rocket 3.9 05:41:33 10° S 05:47:43 80° W 05:53:59 10° N
Cosmos 1633 Rocket 3.9 05:43:37 10° N 05:47:52 51° E 05:52:04 10° SSE
Coronas F rocket 3.1 05:46:15 10° NNE 05:48:24 29° E 05:50:33 10° SE
PAYLOAD A 3.8 05:44:14 10° NNE 05:49:13 87° WNW 05:54:01 10° SSW
Cosmos 389 Rocket 2.8 05:49:35 10° S 05:53:12 71° E 05:56:53 10° NNE
Nadezhda 4 Rocket 4.4 05:47:45 10° N 05:54:04 68° E 06:00:18 10° SSE
Cosmos 1703 3.2 05:51:05 10° NNW 05:54:59 64° W 05:58:52 10° S
Meteor 1-28 Rocket 3.9 05:54:05 10° SSW 05:57:29 32° W 06:00:53 10° NNW
Gbstr 26 Del rocket 3.8 05:54:50 10° SW 06:00:05 87° SE 06:06:43 10° NE
Cosmos 1271 Rocket 4.1 05:58:34 10° WSW 06:01:13 18° WNW 06:03:52 10° NNW
Cosmos 2344 3.7 05:54:52 10° SSW 06:02:34 88° ESE 06:10:56 10° NNE
OPS 8737 4.2 05:59:53 10° SSW 06:03:25 84° NW 06:06:35 10° NNE
Cosmos 773 Rocket 4.4 05:58:28 10° NNW 06:03:26 42° WSW 06:08:22 10° S
Cosmos 1626 2.1 06:00:00 10° NNW 06:03:42 64° W 06:07:23 10° S
PSLV R/B 4.2 06:01:41 16° WNW 06:03:53 34° N 06:07:00 10° ENE
BREEZE-M DEB (TANK) 4.4 05:53:32 11° NW 06:04:51 35° WSW 06:08:42 10° S
Cosmos 2058 3.9 06:01:35 10° NNW 06:05:02 26° W 06:08:31 10° SSW
Atlas 2A Centaur Rocket 3.6 06:06:17 10° SW 06:07:54 13° S 06:09:07 10° SSE
Cosmos 2112 Rocket 4.1 06:02:46 10° NNW 06:08:08 88° ENE 06:13:29 10° SSE
YAOGAN 1 2.8 06:04:52 10° NNE 06:09:13 75° ESE 06:13:31 10° S
DELTA 2 R/B(2) 3.6 06:10:15 10° WSW 06:12:05 67° SSE 06:14:58 10° ENE
Cosmos 1092 Rocket 4.4 06:06:35 10° N 06:12:50 69° E 06:19:00 10° SSE
Cosmos 1184 Rocket 3.0 06:10:33 10° NNW 06:13:46 49° W 06:16:58 10° S
Cosmos 2221 3.7 06:10:40 10° SW 06:14:05 22° WNW 06:17:28 10° NNW
Cosmos 1340 Rocket 4.1 06:11:21 10° NW 06:14:16 20° W 06:17:11 10° SW
Milstar 3 Cent rocket 4.0 06:12:08 10° SW 06:18:35 30° S 06:22:59 10° ESE
Cosmos 292 Rocket 4.0 06:14:11 10° NNW 06:18:47 48° WSW 06:23:23 10° S
NOSS 3-1 (A) 4.3 06:11:19 10° NW 06:18:58 57° WSW 06:27:11 10° SSE
Cosmos 1666 Rocket 3.8 06:16:29 10° NNW 06:20:49 50° W 06:25:08 10° SSW
Cosmos 1943 3.2 06:16:36 10° NNW 06:22:19 80° WSW 06:27:59 10° SSE
Cosmos 1484 Rocket 3.5 06:19:35 10° NNE 06:23:35 62° E 06:27:28 10° S
APEX 3.1 06:21:48 10° SSW 06:25:51 57° WNW 06:29:06 10° NNE
SMAP 3.1 06:22:37 10° N 06:27:13 60° WNW 06:31:46 10° SSW
Helios 1B rocket 2.6 06:23:27 10° SSE 06:27:33 82° ENE 06:31:40 10° N
ATLAS 2AS CENTAUR R/B 3.7 06:19:58 10° NNW 06:27:51 55° NE 06:35:08 10° SE
Cosmos 1356 Rocket 4.3 06:24:22 10° NNW 06:27:56 28° W 06:31:32 10° SSW
Tiangong 2 1.6 06:26:32 10° W 06:29:31 41° NNW 06:32:31 10° NE
CORIOLIS 4.2 06:25:20 10° N 06:30:45 76° WNW 06:36:10 10° SSW
